This is the latest recevied weather packets stored in our database for station/object S51UL-6. If no packets are shown the sender has not sent any weather packets the latest 10 day(s).
| Time | Temp. | Humidity | Pressure | Rain* | Wind** | Luminosity | Snow |
|---|---|---|---|---|---|---|---|
| 1777899227 | 27.78° C | 32% | 1014.4 hPa | 0 mm | - | - | - |
| 1777898926 | 27.22° C | 32% | 1014.4 hPa | 0 mm | - | - | - |
| 1777898627 | 26.67° C | 32% | 1014.4 hPa | 0 mm | - | - | - |
| 1777898327 | 26.67° C | 33% | 1014.7 hPa | 0 mm | - | - | - |
| 1777897727 | 26.67° C | 34% | 1014.7 hPa | 0 mm | - | - | - |
| 1777897427 | 26.67° C | 32% | 1014.7 hPa | 0 mm | - | - | - |
| 1777897127 | 27.78° C | 32% | 1014.7 hPa | 0 mm | - | - | - |
| 1777896827 | 27.78° C | 33% | 1014.9 hPa | 0 mm | - | - | - |
| 1777896527 | 27.78° C | 32% | 1014.8 hPa | 0 mm | - | - | - |
| 1777895928 | 28.89° C | 34% | 1015 hPa | 0 mm | - | - | - |
| 1777895627 | 28.33° C | 34% | 1015.1 hPa | 0 mm | - | - | - |
| 1777895027 | 28.33° C | 33% | 1015.2 hPa | 0 mm | - | - | - |
| 1777894727 | 28.33° C | 34% | 1015.4 hPa | 0 mm | - | - | - |
| 1777894427 | 28.33° C | 34% | 1015.6 hPa | 0 mm | - | - | - |
| 1777893827 | 27.78° C | 35% | 1015.7 hPa | 0 mm | - | - | - |
| 1777893528 | 27.78° C | 35% | 1015.6 hPa | 0 mm | - | - | - |
| 1777893227 | 28.33° C | 35% | 1015.6 hPa | 0 mm | - | - | - |
| 1777892630 | 27.78° C | 36% | 1015.8 hPa | 0 mm | - | - | - |
| 1777892327 | 28.33° C | 35% | 1015.9 hPa | 0 mm | - | - | - |
| 1777892028 | 27.78° C | 38% | 1015.9 hPa | 0 mm | - | - | - |
| 1777891728 | 27.78° C | 38% | 1016.1 hPa | 0 mm | - | - | - |
| 1777891429 | 27.22° C | 39% | 1016.2 hPa | 0 mm | - | - | - |
| 1777891128 | 26.67° C | 40% | 1016.4 hPa | 0 mm | - | - | - |
| 1777890829 | 26.67° C | 41% | 1016.3 hPa | 0 mm | - | - | - |
| 1777890228 | 25.56° C | 42% | 1016.6 hPa | 0 mm | - | - | - |
* Rain latest hour (hover to see other rain measurements)
** Current wind speed in m/s (hover to see current wind gust speed)